This demonstration page uses our WeatherBlox Daily Observations layout. Learn more.

Left ArrowRight Arrow

Hourly Observations for May 11, 2017

Temp ( °F °C ) Dew Point ( °F °C ) Humidity (%) Winds ( mph kmh ) Pressure ( in mb ) Visibility ( mi km ) Precip ( " mm )
12:56 am 00:56 Clear 56 13.1 51 10.6 85 85 N 5 7 29.96 1015 10 16 0.00 0.00
1:56 am 01:56 Clear 55 12.8 51 10.5 86 86 NNE 5 7 29.96 1014 10 16 0.00 0.00
2:56 am 02:56 Clear 56 13.1 50 10.1 82 82 N 6 9 29.97 1015 10 16 0.00 0.00
3:56 am 03:56 Clear 54 12.3 50 9.8 85 85 N 6 9 29.99 1016 10 16 0.00 0.00
4:56 am 04:56 Cloudy 55 12.8 50 10 83 83 N 5 7 30.01 1016 10 16 0.00 0.00
5:56 am 05:56 Mostly Cloudy 54 12.3 49 9.5 83 83 N 6 9 30.02 1017 10 16 0.00 0.00
6:56 am 06:56 Sunny 54 12.2 48 9 81 81 N 8 13 30.01 1016 10 16 0.00 0.00
7:56 am 07:56 Sunny 56 13.1 49 9.3 78 78 N 3 6 30.04 1017 10 16 0.00 0.00
8:56 am 08:56 Sunny 59 15 50 10 72 72 NNE 8 13 30.04 1017 10 16 0.00 0.00
9:56 am 09:56 Mostly Cloudy 61 16.2 50 9.8 66 66 NNE 6 9 30.04 1017 10 16 0.00 0.00
10:56 am 10:56 Mostly Cloudy 64 18 50 9.9 59 59 N 13 20 30.05 1018 10 16 0.00 0.00
11:56 am 11:56 Mostly Cloudy 66 18.8 54 12.1 65 65 N 6 9 30.05 1018 10 16 0.00 0.00
12:56 pm 12:56 Mostly Cloudy 68 19.9 54 12.1 61 61 NE 7 11 30.04 1017 10 16 0.00 0.00
1:56 pm 13:56 Partly Cloudy 68 20 50 10.1 53 53 N 10 17 30.03 1017 10 16 0.00 0.00
2:56 pm 14:56 Mostly Sunny 68 20.1 50 9.9 52 52 N 9 15 30.01 1016 10 16 0.00 0.00
3:56 pm 15:56 Partly Cloudy 69 20.8 49 9.7 49 49 NNE 9 15 30.00 1016 10 16 0.00 0.00
4:56 pm 16:56 Mostly Sunny 70 21.1 48 8.7 45 45 NNE 9 15 29.98 1015 10 16 0.00 0.00
5:56 pm 17:56 Sunny 70 21.1 45 7.3 41 41 N 12 19 29.96 1015 10 16 0.00 0.00
6:56 pm 18:56 Sunny 69 20.8 45 7.4 42 42 N 8 13 29.99 1016 10 16 0.00 0.00
7:56 pm 19:56 Sunny 66 18.7 44 6.5 45 45 NNE 7 11 30.03 1017 10 16 0.00 0.00
8:56 pm 20:56 Clear 62 16.9 42 5.8 48 48 N 6 9 30.04 1017 10 16 0.00 0.00
9:56 pm 21:56 Clear 59 15.1 44 6.4 56 56 NE 3 6 30.05 1018 10 16 0.00 0.00
10:56 pm 22:56 Clear 58 14.5 42 5.6 55 55 NNE 5 7 30.04 1017 10 16 0.00 0.00
11:56 pm 23:56 Clear 57 14.1 39 3.8 50 50 N 7 11 30.04 1017 10 16 0.00 0.00

Powered by AerisWeather